Terminal Aerodrome Forecast
Issued by NWS

Home | Current Version | Previous Version | Text Only | Print | Product List | Glossary On
Versions: 1 2 3 4 5 6 7 8 9 10 11 12 13 14 15 16 17 18 19 20 21 22 23 24 25 26 27 28 29 30 31 32 33 34 35 36 37 38 39 40 41 42 43 44 45
000
FTUS41 KBOX 210539
TAFMHT
TAF
KMHT 210539Z 2106/2206 19004KT P6SM SCT015
     FM210900 18005KT 5SM BR BKN015
     FM211200 17005KT 3SM BR OVC008
     FM211500 17006KT P6SM BKN030
     FM211800 16006KT P6SM BKN035
     FM220300 VRB03KT 3SM BR BKN090=

USA.gov is the U.S. government's official web portal to all federal, state and local government web resources and services.